DW7126 Lourinha PT current weather conditions

sailwx.info

Wind from 261 at 4 knots gusting 6

Air temperature 21.7° C
Dewpoint 19.8° C

Last reported at 2015-Jul-30 17:55 UTC.
Time now 2015-Jul-30 18:12 UTC

Location: N 39°14' W 009°18'.
View on Google Maps.

See reports from other nearby stations

  
Tides and Currents Weather Stations Pressure Air Temp Water Temp Dewpoint Dewpoint Depression Visibility Wind Speed Wind Dir Waves Ship Positions
date/time (UTC)wind fromknots sea level pressurealtimeterstation pressurevisibilityair tempwater tempwave heightnotes
2015-Jul-30 17:55 261 4 gusting 6 21.7
2015-Jul-30 17:50 257 5 gusting 6 21.7
2015-Jul-30 17:45 241 2 gusting 6 22.2
2015-Jul-30 17:40 274 5 gusting 6 22.2
2015-Jul-30 17:35 259 4 gusting 9 22.2
2015-Jul-30 17:30 257 6 gusting 9 22.2
2015-Jul-30 17:25 266 6 gusting 9 21.7
2015-Jul-30 17:20 254 6 gusting 8 21.7
2015-Jul-30 17:15 288 6 gusting 9 21.7
2015-Jul-30 17:10 265 6 gusting 9 22.2
2015-Jul-30 17:05 262 6 gusting 9 21.7
2015-Jul-30 17:00 242 4 gusting 8 21.7
2015-Jul-30 16:55 271 5 gusting 10 21.7
2015-Jul-30 16:50 312 5 gusting 10 21.7
2015-Jul-30 16:45 265 6 gusting 10 21.7
2015-Jul-30 16:40 269 5 gusting 10 21.7
2015-Jul-30 16:35 271 6 gusting 10 21.7
2015-Jul-30 16:30 268 6 gusting 11 21.7
2015-Jul-30 16:25 261 8 gusting 11 21.7
2015-Jul-30 16:20 269 6 gusting 9 22.2
2015-Jul-30 16:15 275 5 gusting 10 21.7
2015-Jul-30 16:10 266 6 gusting 10 21.7
2015-Jul-30 16:05 252 5 gusting 10 21.7
2015-Jul-30 16:00 265 6 gusting 10 21.7
2015-Jul-30 15:55 286 6 gusting 10 21.7
2015-Jul-30 15:50 281 6 gusting 10 22.2
2015-Jul-30 15:45 360 6 gusting 12 22.8
2015-Jul-30 15:40 270 7 gusting 12 22.8
2015-Jul-30 15:35 260 8 gusting 11 22.8
2015-Jul-30 15:30 277 6 gusting 10 23.3
2015-Jul-30 15:25 268 6 gusting 10 24.4
2015-Jul-30 15:20 279 6 gusting 8 24.4
2015-Jul-30 15:15 360 6 gusting 10 23.3
2015-Jul-30 15:10 248 7 gusting 10 23.3
2015-Jul-30 15:05 250 6 gusting 13 23.3
2015-Jul-30 15:00 270 6 gusting 13 24.4
2015-Jul-30 14:55 267 6 gusting 13 25.6
2015-Jul-30 14:50 259 8 gusting 13 24.4
2015-Jul-30 14:46 304 5 gusting 9 24.4
2015-Jul-30 14:41 360 6 gusting 10 23.9
2015-Jul-30 14:35 274 5 gusting 11 24.4
2015-Jul-30 14:26 279 6 gusting 11 23.9
2015-Jul-30 14:20 263 7 gusting 11 23.3
2015-Jul-30 14:16 360 7 gusting 11 22.8
2015-Jul-30 14:11 248 8 gusting 11 22.8
2015-Jul-30 14:06 360 7 gusting 11 22.8
2015-Jul-30 13:57 274 6 gusting 11 23.3
2015-Jul-30 13:51 264 6 gusting 11 24.4
2015-Jul-30 13:40 265 6 gusting 13 24.4
2015-Jul-30 13:36 248 7 gusting 13 24.4
2015-Jul-30 13:31 360 6 gusting 12 24.4
2015-Jul-30 13:26 360 6 gusting 12 23.3
2015-Jul-30 13:21 273 8 gusting 13 23.3
2015-Jul-30 13:00 250 7 gusting 13 23.9
2015-Jul-30 12:50 244 10 gusting 13 24.4
2015-Jul-30 12:45 244 9 gusting 13 23.9
2015-Jul-30 12:36 292 8 gusting 13 23.9
2015-Jul-30 12:30 360 6 gusting 13 24.4
2015-Jul-30 12:25 257 8 gusting 13 23.9
2015-Jul-30 12:16 254 10 gusting 13 23.3
2015-Jul-30 12:00 257 7 gusting 13 23.9
2015-Jul-30 11:50 360 7 gusting 13 23.9
2015-Jul-30 11:45 360 9 gusting 13 23.3
2015-Jul-30 11:40 360 9 gusting 13 23.3
2015-Jul-30 11:15 360 7 gusting 12 23.3
2015-Jul-30 11:06 360 8 gusting 13 23.9
2015-Jul-30 10:12 279 6 gusting 10 23.3
2015-Jul-30 09:45 247 6 gusting 13 22.2
2015-Jul-30 09:36 360 9 gusting 13 22.2
2015-Jul-30 09:32 227 8 gusting 13 22.2
2015-Jul-30 09:25 252 8 gusting 13 22.2
2015-Jul-30 09:00 245 5 gusting 10 21.7
2015-Jul-30 08:45 254 6 gusting 9 21.1
2015-Jul-30 08:30 271 6 gusting 8 20.6
2015-Jul-30 08:20 257 6 gusting 8 20.6
2015-Jul-30 08:11 261 5 gusting 6 20.6
2015-Jul-30 08:02 279 4 gusting 7 20.6
2015-Jul-30 08:00 279 4 gusting 7 20.6
2015-Jul-30 07:50 259 3 gusting 7 20.0
2015-Jul-30 07:40 273 6 gusting 7 20.6
2015-Jul-30 07:16 270 4 gusting 6 20.6
2015-Jul-30 07:10 264 3 gusting 5 20.0
2015-Jul-30 07:05 267 1 gusting 5 20.0
2015-Jul-30 06:55 273 2 gusting 6 20.0
2015-Jul-29 09:30 014 9 gusting 13 22.2
2015-Jul-29 09:25 013 9 gusting 13 22.2
2015-Jul-29 09:20 011 10 gusting 13 22.2
2015-Jul-29 09:15 037 6 gusting 13 22.2
2015-Jul-29 09:10 360 6 gusting 13 21.7
2015-Jul-29 09:05 015 4 gusting 11 21.7
2015-Jul-29 09:00 347 4 gusting 11 21.7
2015-Jul-29 08:55 018 7 gusting 12 21.7
2015-Jul-29 08:50 340 6 gusting 12 21.7
2015-Jul-29 08:45 022 6 gusting 12 21.1
2015-Jul-29 08:40 339 6 gusting 10 21.1
2015-Jul-29 08:35 032 5 gusting 10 21.1
2015-Jul-29 08:30 343 5 gusting 11 21.1
2015-Jul-29 08:25 355 4 gusting 11 21.1
2015-Jul-29 08:20 355 6 gusting 12 21.1
2015-Jul-29 08:15 015 7 gusting 12 21.1
2015-Jul-29 08:10 023 6 gusting 11 21.1
2015-Jul-29 08:05 017 6 gusting 11 21.1
2015-Jul-29 08:00 026 6 gusting 11 21.1
2015-Jul-29 07:55 023 4 gusting 9 21.1
2015-Jul-29 07:50 026 6 gusting 9 20.6
2015-Jul-29 07:45 017 4 gusting 8 20.6
2015-Jul-29 07:40 030 6 gusting 9 20.6
2015-Jul-29 07:35 013 6 gusting 9 20.6
2015-Jul-29 07:30 038 5 gusting 10 20.6
2015-Jul-29 07:25 027 6 gusting 9 20.6
2015-Jul-29 07:20 011 5 gusting 9 20.6
2015-Jul-29 07:15 015 5 gusting 8 20.0
2015-Jul-29 07:10 340 6 gusting 8 20.0
2015-Jul-29 07:05 326 5 gusting 9 20.0
2015-Jul-29 07:00 313 6 gusting 9 20.6
2015-Jul-29 06:55 348 5 gusting 7 20.6
2015-Jul-29 06:50 031 5 gusting 8 20.6
2015-Jul-29 06:45 030 3 gusting 9 20.6
2015-Jul-29 06:40 028 6 gusting 9 20.6
2015-Jul-29 06:36 027 5 gusting 7 20.0
2015-Jul-29 06:30 026 1 gusting 6 20.0
2015-Jul-29 06:25 046 1 gusting 6 20.0
2015-Jul-29 06:21 047 2 gusting 6 20.0
2015-Jul-29 06:15 039 1 gusting 6 20.0
2015-Jul-29 06:10 022 2 gusting 7 20.0
2015-Jul-29 06:06 022 1 gusting 7 20.0
2015-Jul-29 06:00 057 4 gusting 7 20.0
2015-Jul-29 05:55 021 5 gusting 9 20.0
2015-Jul-29 05:50 038 4 gusting 11 20.0
2015-Jul-29 05:46 028 6 gusting 11 20.0
2015-Jul-29 05:40 034 4 gusting 6 20.0
2015-Jul-29 05:35 021 5 gusting 6 20.0
2015-Jul-29 05:30 026 3 gusting 6 20.0
2015-Jul-29 05:20 024 4 gusting 6 20.0
2015-Jul-29 05:15 027 4 gusting 7 20.0
2015-Jul-29 05:11 027 5 gusting 7 20.0
2015-Jul-29 05:05 005 5 gusting 11 20.0
2015-Jul-29 05:01 019 6 gusting 11 20.0
2015-Jul-29 04:55 033 5 gusting 8 20.0
2015-Jul-29 04:51 019 5 gusting 9 20.0
2015-Jul-29 04:45 035 6 gusting 9 20.0
2015-Jul-29 04:40 026 5 gusting 8 20.0
2015-Jul-29 04:35 005 4 gusting 8 20.0
2015-Jul-29 04:31 010 4 gusting 8 20.0
2015-Jul-29 04:25 005 4 gusting 10 20.0
2015-Jul-29 04:20 018 6 gusting 10 20.0
2015-Jul-29 04:15 005 5 gusting 8 20.0
2015-Jul-29 04:10 012 5 gusting 10 20.0
2015-Jul-29 04:06 033 6 gusting 10 20.0
2015-Jul-29 04:00 013 4 gusting 8 20.0
2015-Jul-29 03:55 005 1 gusting 8 20.0
2015-Jul-29 03:50 014 4 gusting 7 20.0
2015-Jul-29 03:45 009 4 gusting 6 20.0
2015-Jul-29 03:40 009 4 gusting 6 20.0
2015-Jul-29 03:35 355 3 gusting 6 20.0
2015-Jul-29 03:30 015 0 gusting 6 20.0
2015-Jul-29 03:25 005 3 gusting 6 20.0
2015-Jul-29 03:20 020 0 gusting 6 20.0
2015-Jul-29 03:15 005 3 gusting 6 20.0
2015-Jul-29 03:10 355 4 gusting 7 20.0
2015-Jul-29 03:05 005 1 gusting 7 20.0
2015-Jul-29 03:00 005 3 gusting 6 20.0
2015-Jul-29 02:55 360 3 gusting 5 20.0
2015-Jul-29 02:50 360 20.0
2015-Jul-29 02:45 360 2 gusting 6 20.0
2015-Jul-29 02:40 012 2 gusting 6 20.0
2015-Jul-29 02:35 010 3 gusting 6 20.0
2015-Jul-29 02:30 360 0 gusting 4 20.0
2015-Jul-29 02:25 005 20.0
2015-Jul-29 02:20 009 3 gusting 6 20.0
2015-Jul-29 02:15 016 20.0
2015-Jul-29 02:10 015 4 gusting 8 20.0
2015-Jul-29 02:05 017 0 gusting 5 20.0
2015-Jul-29 02:00 025 0 gusting 4 20.0
2015-Jul-29 01:55 026 20.0
2015-Jul-29 01:50 026 20.0
2015-Jul-29 01:45 026 1 gusting 6 20.0
2015-Jul-29 01:40 028 3 gusting 8 20.0
2015-Jul-29 01:35 040 3 gusting 8 20.0
2015-Jul-29 01:30 056 3 gusting 7 20.0
2015-Jul-29 01:25 019 3 gusting 7 20.0
2015-Jul-29 01:20 029 4 gusting 6 19.4
2015-Jul-29 01:15 028 3 gusting 6 19.4
2015-Jul-29 01:10 031 3 gusting 6 19.4
2015-Jul-29 01:05 015 2 gusting 6 19.4
2015-Jul-29 01:00 013 4 gusting 6 19.4
2015-Jul-29 00:55 022 1 gusting 6 19.4
2015-Jul-29 00:50 009 2 gusting 6 18.9
2015-Jul-29 00:45 018 2 gusting 6 18.9
2015-Jul-29 00:40 015 2 gusting 6 18.9
2015-Jul-29 00:35 013 1 gusting 6 18.9
2015-Jul-29 00:30 019 3 gusting 6 18.9
2015-Jul-29 00:25 030 1 gusting 4 18.9
2015-Jul-29 00:20 030 1 gusting 5 18.9
2015-Jul-29 00:15 027 2 gusting 6 18.9
2015-Jul-29 00:10 016 3 gusting 6 18.3
2015-Jul-29 00:05 046 2 gusting 6 18.3
2015-Jul-29 00:00 020 3 gusting 7 18.3
2015-Jul-28 23:55 022 2 gusting 7 18.3
2015-Jul-28 23:50 011 1 gusting 7 18.3
2015-Jul-28 23:45 005 2 gusting 7 18.3
2015-Jul-28 23:40 355 5 gusting 7 18.9
2015-Jul-28 23:35 022 5 gusting 7 18.9
2015-Jul-28 23:30 053 4 gusting 7 18.9
2015-Jul-28 23:25 017 3 gusting 7 18.9
2015-Jul-28 23:20 019 3 gusting 8 18.9
2015-Jul-28 23:15 020 5 gusting 8 18.9
2015-Jul-28 23:10 048 6 gusting 8 18.9
2015-Jul-28 23:05 024 5 gusting 7 18.9
2015-Jul-28 23:00 028 4 gusting 7 18.9
2015-Jul-28 22:55 030 6 gusting 10 18.9
2015-Jul-28 22:50 030 4 gusting 10 18.9
2015-Jul-28 22:45 024 5 gusting 8 18.9
2015-Jul-28 22:40 005 6 gusting 9 18.9
2015-Jul-28 22:35 016 5 gusting 9 18.9
2015-Jul-28 22:30 021 5 gusting 11 18.9
2015-Jul-28 22:25 005 4 gusting 9 18.9
2015-Jul-28 22:20 032 6 gusting 9 18.9
2015-Jul-28 22:15 027 5 gusting 9 18.9
2015-Jul-28 22:10 015 6 gusting 9 18.9
2015-Jul-28 22:05 015 6 gusting 9 18.9
2015-Jul-28 22:00 012 6 gusting 12 18.9
2015-Jul-28 21:55 017 6 gusting 12 18.9
2015-Jul-28 21:50 022 5 gusting 11 18.9
2015-Jul-28 21:45 022 6 gusting 11 18.9
2015-Jul-28 21:40 022 6 gusting 11 18.9
2015-Jul-28 21:35 013 6 gusting 10 18.9
2015-Jul-28 21:30 019 6 gusting 9 18.9
2015-Jul-28 21:25 014 6 gusting 10 18.9
2015-Jul-28 21:20 064 6 gusting 12 19.4
2015-Jul-28 21:16 005 6 gusting 14 19.4
2015-Jul-28 21:10 011 9 gusting 14 19.4
2015-Jul-28 21:05 017 7 gusting 13 19.4
2015-Jul-28 21:00 005 8 gusting 13 19.4
2015-Jul-28 20:55 022 8 gusting 13 19.4
2015-Jul-28 20:50 333 8 gusting 14 19.4
2015-Jul-28 20:45 005 7 gusting 14 19.4
2015-Jul-28 20:40 028 6 gusting 13 19.4
2015-Jul-28 20:35 005 7 gusting 14 19.4
2015-Jul-28 20:30 355 10 gusting 14 19.4
2015-Jul-28 20:25 024 6 gusting 13 19.4
2015-Jul-28 20:20 027 9 gusting 13 19.4
2015-Jul-28 20:15 036 6 gusting 15 19.4
2015-Jul-28 20:10 011 6 gusting 15 19.4
2015-Jul-28 20:05 026 7 gusting 16 19.4
2015-Jul-28 20:00 360 8 gusting 16 20.0
2015-Jul-28 19:55 005 8 gusting 14 20.0
2015-Jul-28 19:50 014 6 gusting 14 20.0
2015-Jul-28 19:45 017 7 gusting 14 20.0
2015-Jul-28 19:40 036 9 gusting 15 20.6
2015-Jul-28 19:35 355 9 gusting 15 20.6
2015-Jul-28 19:30 348 9 gusting 14 20.6
2015-Jul-28 19:25 025 7 gusting 13 20.6
2015-Jul-28 19:20 022 8 gusting 20 20.6
2015-Jul-28 19:15 017 11 gusting 20 21.1
2015-Jul-28 19:10 039 10 gusting 17 21.1
2015-Jul-28 19:05 035 9 gusting 22 21.1
2015-Jul-28 19:00 042 11 gusting 22 21.7
2015-Jul-28 18:55 034 10 gusting 16 21.7
2015-Jul-28 18:50 012 11 gusting 20 21.7
2015-Jul-28 18:45 051 9 gusting 21 22.2
2015-Jul-28 18:40 016 13 gusting 21 22.2
2015-Jul-28 18:35 019 13 gusting 22 22.2
2015-Jul-28 18:30 028 15 gusting 22 22.2
2015-Jul-28 18:25 017 13 gusting 21 22.8
2015-Jul-28 18:20 040 10 gusting 20 22.2
2015-Jul-28 18:15 350 13 gusting 19 22.2
2015-Jul-28 18:10 014 11 gusting 20 22.2
2015-Jul-28 18:05 028 13 gusting 20 22.2
2015-Jul-28 18:00 035 11 gusting 23 22.8